Stations météo

réclame
Mon MeteoGroup
La Roda de Andalucia, Espagne (8399): Température de l'air & dewpoint: 15.06.2018 19:00:00 - 21.06.2018 19:00:00 (CEST)La Roda de Andalucia, Espagne (8399): Vitesse du vent & gusts: 15.06.2018 19:00:00 - 21.06.2018 19:00:00 (CEST)La Roda de Andalucia, Espagne (8399): Direction du vent: 15.06.2018 19:00:00 - 21.06.2018 19:00:00 (CEST)La Roda de Andalucia, Espagne (8399): reduced air pressure: 15.06.2018 19:00:00 - 21.06.2018 19:00:00 (CEST)La Roda de Andalucia, Espagne (8399): visibility: 15.06.2018 19:00:00 - 21.06.2018 19:00:00 (CEST)La Roda de Andalucia, Espagne (8399): Ensoleillement: 15.06.2018 19:00:00 - 21.06.2018 19:00:00 (CEST)La Roda de Andalucia, Espagne (8399): Quantités de précipitations: 15.06.2018 19:00:00 - 21.06.2018 19:00:00 (CEST)
Date & Time tt [°C] td [°C] ff [km/h] ff [knt] fx [km/h] fx [knt] dd ppp [hPa] vv [km] sd [min] rr [mm]
21.06.2018 19:00:00 30,7 8,4 19 10 38 21 SSW 1012,3 20 60 0,0
21.06.2018 18:00:00 32,4 8,0 15 8 34 19 S 1012,2 20 60 0,0
21.06.2018 17:00:00 33,0 7,7 12 6 36 20 S 1012,2 20 60 0,0
21.06.2018 16:00:00 34,0 7,8 14 8 31 17 S 1012,0 20 60 0,0
21.06.2018 15:00:00 33,2 8,0 10 5 27 15 S 1012,7 20 60 0,0
21.06.2018 14:00:00 32,3 7,8 12 6 28 15 S 1013,1 20 60 -
21.06.2018 13:00:00 29,9 8,3 13 7 23 13 S 1014,1 20 52 0,0
21.06.2018 12:00:00 29,2 8,3 7 4 23 12 SSE 1014,2 20 60 0,0
21.06.2018 11:00:00 27,1 8,0 12 6 22 12 SSE 1014,8 20 60 0,0
21.06.2018 10:00:00 24,7 9,0 13 7 24 13 SSE 1015,7 20 23 0,0
21.06.2018 09:00:00 23,2 8,8 7 4 16 9 SE 1015,6 20 44 0,0
21.06.2018 08:00:00 20,0 8,7 8 4 14 8 SSE 1016,0 20 0 -
21.06.2018 07:00:00 19,0 9,2 8 5 26 14 WSW 1016,6 20 0 0,0
21.06.2018 06:00:00 19,6 9,4 11 6 21 12 SSE 1015,7 20 0 0,0
21.06.2018 05:00:00 18,5 9,6 4 2 10 6 SSW 1016,0 20 0 0,0
21.06.2018 04:00:00 19,5 10,5 7 4 19 10 SSW 1016,6 20 0 0,0
21.06.2018 03:00:00 20,5 10,3 8 4 27 15 SSW 1016,5 20 0 0,0
21.06.2018 02:00:00 20,4 11,1 10 5 22 12 SW 1016,4 20 0 -
21.06.2018 01:00:00 20,8 11,1 11 6 30 16 WSW 1015,8 20 0 0,0
21.06.2018 00:00:00 21,7 11,1 16 8 38 20 SSW 1015,3 20 0 0,0
20.06.2018 23:00:00 22,9 10,3 18 10 37 20 SSW 1014,5 20 0 0,0
20.06.2018 22:00:00 24,3 10,2 18 10 37 20 SSW 1013,7 20 10 0,0
20.06.2018 21:00:00 27,0 8,4 20 11 36 20 SSW 1013,2 20 60 0,0
20.06.2018 20:00:00 29,7 7,0 19 11 38 21 SSW 1012,6 20 60 -
20.06.2018 19:00:00 31,1 6,8 19 10 42 23 S 1012,1 20 60 0,0
20.06.2018 18:00:00 32,7 7,6 14 7 30 16 S 1012,3 20 60 0,0
20.06.2018 17:00:00 33,3 6,5 11 6 29 16 S 1012,5 20 60 0,0
20.06.2018 16:00:00 33,0 6,2 13 7 29 15 SSW 1012,9 20 60 0,0
20.06.2018 15:00:00 32,4 7,3 13 7 36 19 S 1013,5 20 60 0,0
20.06.2018 14:00:00 30,9 8,0 17 9 34 18 S 1014,4 20 60 -
20.06.2018 13:00:00 30,1 8,5 12 7 29 16 S 1014,8 20 60 0,0
20.06.2018 12:00:00 28,0 9,3 11 6 22 12 SSW 1015,1 20 60 0,0
20.06.2018 11:00:00 25,8 9,2 11 6 32 17 S 1015,9 20 60 0,0
20.06.2018 10:00:00 23,7 10,0 16 9 30 16 S 1016,4 20 60 0,0
20.06.2018 09:00:00 21,6 10,2 13 7 29 16 S 1016,7 20 53 0,0
20.06.2018 08:00:00 19,8 10,5 9 5 26 14 S 1016,7 20 0 -
20.06.2018 07:00:00 - - - - - - - - - - -
20.06.2018 06:00:00 - - - - - - - - - - -
20.06.2018 05:00:00 19,2 11,2 21 12 46 25 S 1015,8 20 0 0,0
20.06.2018 04:00:00 19,4 11,9 24 13 49 27 S 1015,9 20 0 0,0
20.06.2018 03:00:00 19,3 12,1 24 13 49 26 S 1016,4 20 0 0,0
20.06.2018 02:00:00 20,1 11,8 21 11 43 23 S 1016,6 20 0 -
20.06.2018 01:00:00 19,8 11,6 15 8 32 17 S 1016,9 20 0 0,0
20.06.2018 00:00:00 20,2 11,9 20 11 46 25 S 1016,9 20 0 0,0
19.06.2018 23:00:00 20,8 11,4 19 11 43 23 S 1016,6 20 0 0,0
19.06.2018 22:00:00 21,7 10,5 18 10 43 23 S 1016,0 20 22 0,0
19.06.2018 21:00:00 24,2 9,3 22 12 53 29 S 1015,6 20 60 0,0
19.06.2018 20:00:00 26,5 8,0 26 14 54 29 S 1015,0 20 60 -
19.06.2018 19:00:00 28,6 8,8 24 13 50 27 S 1014,4 20 60 0,0
19.06.2018 18:00:00 29,8 7,7 24 13 53 29 S 1014,8 20 60 0,0
19.06.2018 17:00:00 30,8 6,7 22 12 56 31 S 1015,1 20 60 0,0
19.06.2018 16:00:00 29,7 7,0 27 15 57 31 S 1015,8 20 60 0,0
19.06.2018 15:00:00 29,9 7,1 24 13 56 30 S 1016,0 20 60 0,0
19.06.2018 14:00:00 29,6 6,8 26 14 51 28 SSE 1016,6 20 60 -
19.06.2018 13:00:00 28,9 6,8 24 13 49 26 S 1016,7 20 60 0,0
19.06.2018 12:00:00 28,4 7,6 22 12 46 25 S 1016,8 20 60 0,0
19.06.2018 11:00:00 26,7 7,7 19 11 43 23 S 1017,0 20 60 0,0
19.06.2018 10:00:00 25,0 7,6 19 10 44 24 S 1017,4 20 60 0,0
19.06.2018 09:00:00 23,1 6,8 20 11 45 25 S 1017,7 20 46 0,0
19.06.2018 08:00:00 21,9 7,0 19 10 40 22 S 1017,5 20 0 -
19.06.2018 07:00:00 20,9 6,1 15 8 43 23 S 1017,5 20 0 0,0
19.06.2018 06:00:00 21,4 6,1 18 10 42 23 S 1017,0 20 0 0,0
19.06.2018 05:00:00 20,8 7,4 19 10 38 20 S 1016,9 20 0 0,0
19.06.2018 04:00:00 19,9 9,4 16 9 33 18 S 1017,2 20 0 0,0
19.06.2018 03:00:00 - - - - - - - - - - -
19.06.2018 02:00:00 20,6 8,5 11 6 29 16 S 1017,6 20 0 -
19.06.2018 01:00:00 21,5 8,0 15 8 28 15 S 1017,5 20 0 0,0
19.06.2018 00:00:00 22,4 7,0 17 9 36 19 SSW 1017,1 20 0 0,0
18.06.2018 23:00:00 23,7 6,8 19 10 38 20 SSW 1016,2 20 0 0,0
18.06.2018 22:00:00 25,3 7,4 16 9 37 20 SSW 1015,3 20 3 0,0
18.06.2018 21:00:00 28,0 6,7 16 8 39 21 SSW 1014,4 20 60 0,0
18.06.2018 20:00:00 30,7 5,9 18 10 36 20 SSW 1013,7 20 60 -
18.06.2018 19:00:00 32,7 6,1 18 10 38 20 SSW 1013,5 20 60 0,0
18.06.2018 18:00:00 33,7 6,8 19 11 39 21 S 1013,6 20 60 0,0
18.06.2018 17:00:00 35,1 7,3 20 11 36 19 S 1013,6 20 60 0,0
18.06.2018 16:00:00 35,6 7,6 16 8 40 21 S 1013,8 20 60 0,0
18.06.2018 15:00:00 35,1 7,3 13 7 32 17 S 1014,2 20 60 0,0
18.06.2018 14:00:00 33,8 7,7 11 6 30 16 SSE 1014,9 20 60 -
18.06.2018 13:00:00 31,7 8,0 15 8 35 19 S 1015,8 20 60 0,0
18.06.2018 12:00:00 30,8 7,8 13 7 34 19 S 1016,1 20 60 0,0
18.06.2018 11:00:00 29,2 7,7 12 7 29 16 S 1016,3 20 60 0,0
18.06.2018 10:00:00 26,6 8,5 13 7 32 18 S 1016,7 20 60 0,0
18.06.2018 09:00:00 23,0 8,3 11 6 23 12 S 1017,2 20 46 0,0
18.06.2018 08:00:00 20,1 7,8 11 6 21 11 S 1017,7 20 2 -
18.06.2018 07:00:00 19,4 7,4 10 6 22 12 S 1017,8 20 0 0,0
18.06.2018 06:00:00 - - - - - - - - - - -
18.06.2018 05:00:00 - - - - - - - - - - -
18.06.2018 04:00:00 - - - - - - - - - - -
18.06.2018 03:00:00 - - - - - - - - - - -
18.06.2018 02:00:00 - - - - - - - - - - -
18.06.2018 01:00:00 - - - - - - - - - - -
18.06.2018 00:00:00 23,2 5,1 15 8 35 19 S 1017,3 20 0 0,0
17.06.2018 23:00:00 24,5 4,8 19 10 35 19 S 1017,0 20 0 0,0
17.06.2018 22:00:00 26,7 5,0 12 7 33 18 S 1016,1 20 23 0,0
17.06.2018 21:00:00 30,2 5,5 12 6 31 17 S 1015,3 20 60 0,0
17.06.2018 20:00:00 31,7 5,3 14 8 32 17 S 1014,9 20 60 -
17.06.2018 19:00:00 32,9 4,6 15 8 34 19 S 1014,7 20 60 0,0
17.06.2018 18:00:00 34,8 4,3 14 8 29 15 S 1014,4 20 60 0,0
17.06.2018 17:00:00 34,8 5,3 14 7 33 18 S 1014,4 20 60 0,0
17.06.2018 16:00:00 34,9 5,3 13 7 33 18 SSE 1014,6 20 60 0,0
17.06.2018 15:00:00 34,4 5,0 14 7 29 15 SSW 1014,7 20 60 0,0
17.06.2018 14:00:00 33,6 4,3 9 5 27 15 S 1015,0 20 60 -
17.06.2018 13:00:00 32,3 5,8 7 4 23 12 SSE 1015,1 20 60 0,0
17.06.2018 12:00:00 30,4 5,6 9 5 20 11 S 1015,4 20 60 0,0
17.06.2018 11:00:00 27,9 6,1 10 6 23 13 S 1015,9 20 60 0,0
17.06.2018 10:00:00 25,4 6,5 8 5 21 11 S 1016,2 20 60 0,0
17.06.2018 09:00:00 22,1 6,7 9 5 16 8 SSW 1016,4 20 46 0,0
17.06.2018 08:00:00 - - - - - - - - - - -
17.06.2018 07:00:00 - - - - - - - - - - -
17.06.2018 06:00:00 - - - - - - - - - - -
17.06.2018 05:00:00 - - - - - - - - - - -
17.06.2018 04:00:00 - - - - - - - - - - -
17.06.2018 03:00:00 - - - - - - - - - - -
17.06.2018 02:00:00 - - - - - - - - - - -
17.06.2018 01:00:00 - - - - - - - - - - -
17.06.2018 00:00:00 - - - - - - - - - - -
16.06.2018 23:00:00 24,1 5,9 12 6 23 13 S 1013,4 20 0 0,0
16.06.2018 22:00:00 26,3 5,3 14 8 27 14 SSW 1012,2 20 22 0,0
16.06.2018 21:00:00 29,8 5,8 14 8 31 17 S 1011,0 20 60 0,0
16.06.2018 20:00:00 31,5 5,1 16 8 32 17 S 1010,5 20 60 -
16.06.2018 19:00:00 33,4 5,0 14 7 29 16 SSE 1010,1 20 60 0,0
16.06.2018 18:00:00 34,7 3,2 10 5 25 14 S 1010,0 20 60 0,0
16.06.2018 17:00:00 34,6 3,2 10 5 28 15 S 1010,0 20 60 0,0
16.06.2018 16:00:00 34,5 3,0 12 6 30 16 S 1010,5 20 60 0,0
16.06.2018 15:00:00 33,6 6,8 14 7 32 18 S 1010,8 20 60 0,0
16.06.2018 14:00:00 33,0 7,0 11 6 30 16 SSE 1011,3 20 60 -
16.06.2018 13:00:00 32,3 7,1 11 6 29 15 S 1011,6 20 60 0,0
16.06.2018 12:00:00 30,1 7,8 16 9 32 17 S 1012,1 20 60 0,0
16.06.2018 11:00:00 27,6 8,9 16 8 31 17 S 1012,4 20 60 0,0
16.06.2018 10:00:00 25,0 10,4 17 9 32 18 S 1012,4 20 60 0,0
16.06.2018 09:00:00 21,9 11,3 14 8 29 15 S 1012,5 20 49 0,0
16.06.2018 08:00:00 19,6 10,5 12 7 23 12 S 1012,5 20 3 -
16.06.2018 07:00:00 18,0 9,3 13 7 23 13 S 1012,4 20 0 0,0
16.06.2018 06:00:00 18,4 8,7 12 7 23 13 S 1012,2 20 0 0,0
16.06.2018 05:00:00 19,0 8,9 11 6 20 11 S 1012,2 20 0 0,0
16.06.2018 04:00:00 19,1 8,7 9 5 19 11 S 1012,5 20 0 0,0
16.06.2018 03:00:00 19,4 9,0 12 6 19 10 S 1012,8 20 0 0,0
16.06.2018 02:00:00 20,6 9,2 11 6 19 10 S 1012,6 20 0 -
16.06.2018 01:00:00 21,0 9,3 9 5 20 11 S 1012,6 20 0 0,0
16.06.2018 00:00:00 22,8 9,2 13 7 21 12 S 1012,1 20 0 0,0
15.06.2018 23:00:00 25,2 10,3 10 6 22 12 S 1011,3 20 0 0,0
15.06.2018 22:00:00 27,9 6,1 8 4 11 6 SW 1010,5 20 22 0,0
15.06.2018 21:00:00 31,9 1,1 5 3 19 10 N 1009,7 20 60 0,0
15.06.2018 20:00:00 32,7 -0,5 8 5 21 11 N 1009,6 20 60 -
15.06.2018 19:00:00 33,4 0,2 8 5 25 13 N 1009,6 20 60 0,0

tt = Température de l'air
td = dewpoint
ff = Vitesse du vent
fx = gusts
dd = Direction du vent
ppp = reduced air pressure
vv = visibility
sd = Ensoleillement
rr = Quantités de précipitations

stations d'obs. à proximité